Location: Passau
(48.5830°N, 13.4830°E)
Time: 20:23:55
(UTC+02:00)

S-56A Canister/Altair - Pass Details

Date: 18 May 2024
Orbit: 637 x 2489 km, 38.9° (Epoch: 15 June)

Event Time Altitude Azimuth Distance (km) Brightness Sun altitude
Rises 07:22:00 0° 207° (SSW) 5,643 11.6 17.8°
Reaches altitude 10° 07:27:14 10° 193° (SSW) 4,328 11.2 18.6°
Maximum altitude 07:34:37 20° 152° (SSE) 3,040 11.0 19.8°
Drops below altitude 10° 07:40:26 10° 109° (ESE) 3,307 12.1 20.8°
Sets 07:43:44 0° 92° (E) 3,989 12.7 21.3°
